Вернуться в каталог

OPS 3674

VELA 4

АктивенВоенныеHEO
NORAD 837·PAYLOAD·🇺🇸 United States

Запущен Jul 17, 1964 с Cape Canaveral Space Force Station

Loading…

Ближайшие Пролёты (ближайшие 24 часа)

TLE

СвежийSource: Space-Track

Эпоха: Sep 8, 2026, 23:29 UTC

1   837U 64040B   26251.97856733 -.00000379  00000-0  00000+0 0  9995
2   837  48.4640 118.3473 6482601 256.8326   0.5778  0.24005192 54922

Отслеживайте OPS 3674 в реальном времени с AllMySat

Download on the App Store